Location: Coupvray
(48.8929°N, 2.7967°E)
Time: 08:41:05
(UTC+00:00)

Cosmos 1697 Rocket - Pass Details

Date: 14 July 2020
Orbit: 834 x 842 km, 71.0° (Epoch: 14 August)

Event Time Altitude Azimuth Distance (km) Brightness Sun altitude
Rises 02:07:42 0° 329° (NNW) 3,398 6.2 -13.5°
Reaches altitude 10° 02:10:11 10° 326° (NW) 2,459 5.4 -13.3°
Maximum altitude 02:15:42 59° 248° (WSW) 966 2.7 -12.8°
Drops below altitude 10° 02:21:10 10° 170° (S) 2,438 4.7 -12.3°
Enters shadow 02:22:28 - 168° (SSE) 2,928 5.1 -12.2°
